Location: Rounton
(54.4000°N, 1.3500°W)
Time: 04:40:27
(UTC+00:00)

A-11 Canister half - Pass Details

Date: 07 December 2021
Orbit: 1516 x 1684 km, 47.2° (Epoch: 21 January)

Event Time Altitude Azimuth Distance (km) Brightness Sun altitude
Rises 06:05:15 0° 215° (SW) 4,738 11.4 -17.1°
Reaches altitude 10° 06:08:37 10° 206° (SSW) 3,779 10.9 -16.6°
Maximum altitude 06:16:58 35° 146° (SE) 2,399 10.5 -15.4°
Drops below altitude 10° 06:25:35 10° 86° (E) 3,904 12.2 -14.2°
Sets 06:29:06 0° 78° (ENE) 4,912 12.7 -13.7°
